Regional Weather Roundup
Issued by NWS

Home | Current Version | Previous Version | Graphics & Text | Print | Product List | Glossary On
Versions: 1 2 3 4 5 6 7 8 9 10 11 12 13 14 15 16 17 18 19 20 21 22 23 24 25 26 27 28 29 30 31 32 33 34 35 36 37 38 39 40 41 42 43 44 45 46 47 48 49 50
000
ASUS43 KLSX 180257
RWRMO

WEATHER SUMMARY FOR MISSOURI
NATIONAL WEATHER SERVICE SPRINGFIELD MO
1000 PM CDT THU AUG 17 2017

NOTE: "FAIR" INDICATES FEW OR NO CLOUDS BELOW 12,000 FEET WITH NO
       SIGNIFICANT WEATHER AND/OR OBSTRUCTIONS TO VISIBILITY.
       CURRENT SKY AND/OR WEATHER CONDITIONS ARE NOT AVAILABLE FOR
       CHILLICOTHE AND FARMINGTON.

MOZ001>031-035>038-043-044-053-054-180400-
...NORTHERN AND WESTERN MISSOURI...

CITY           SKY/WX    TMP DP  RH WIND       PRES   REMARKS
KANSAS CTY INT CLEAR     76  61  59 SW5       29.95R
LEE`S SUMMIT   CLEAR     73  63  70 SW6       29.96R
ST JOSEPH      CLEAR     64  62  93 CALM      29.94R
CHILLICOTHE      N/A     66  62  87 CALM      29.95R

$$
MOZ066>068-077>081-088>096-101>105-180400-
...SOUTHWEST MISSOURI...

CITY           SKY/WX    TMP DP  RH WIND       PRES   REMARKS
SPRINGFIELD    CLEAR     69  63  81 W3        30.00R
JOPLIN         CLEAR     69  67  93 CALM      30.00R

$$
MOZ032>034-039>042-045>050-055>058-069>072-180400-
...CENTRAL MISSOURI...

CITY           SKY/WX    TMP DP  RH WIND       PRES   REMARKS
COLUMBIA       NOT AVBL
JEFFERSON CITY CLEAR     70  68  93 E3        29.93R
ROLLA          CLEAR     67  64  90 SW7       29.98R
SEDALIA        CLEAR     72  66  81 W6        29.96R
WARRENSBURG    CLEAR     70  61  73 SW6       29.94R

$$
MOZ051-052-059>065-180400-
...EAST CENTRAL MISSOURI...

CITY           SKY/WX    TMP DP  RH WIND       PRES   REMARKS
ST LOUIS INTL  PTCLDY    76  66  71 W7        29.92R

$$
MOZ072>076-082>087-097>100-106>115-180400-
...SOUTH CENTRAL AND SOUTHEAST MISSOURI...

CITY           SKY/WX    TMP DP  RH WIND       PRES   REMARKS
CAPE GIRARDEAU PTCLDY    72  70  93 W3        29.91R
POPLAR BLUFF   CLEAR     76  73  91 SW5       29.93R
WEST PLAINS    CLEAR     73  65  75 NW6       30.00R

$$



USA.gov is the U.S. government's official web portal to all federal, state and local government web resources and services.